Hourly Weather Roundup
Issued by NWS Central Illinois

Home | Current Version | Previous Version | Text Only | Print | Product List | Glossary On
Versions: 1 2 3 4 5 6 7 8 9 10 11 12 13 14 15 16 17 18 19 20 21 22 23 24 25 26 27 28 29 30 31 32 33 34 35 36 37 38 39 40 41 42 43 44 45 46 47 48 49 50
000
NZUS43 KILX 291710
HWRILX

AREA WEATHER ROUNDUP
NATIONAL WEATHER SERVICE, LINCOLN IL
1200 PM CDT SAT AUG 29 2015


CITY           SKY/WX    TMP DP  RH WIND       PRES   REMARKS
BLOOMINGTON    CLOUDY    76  67  73 S10       30.05S
CHAMPAIGN      CLOUDY    80  67  64 S8        30.05F HX  82
DANVILLE       CLOUDY    77  69  76 S5        30.04F
DECATUR        CLOUDY    77  66  68 S7        30.04F
EFFINGHAM      PTSUNNY   81  64  56 SE7       30.07S HX  82
FLORA          CLOUDY    79  68  68 S10       30.06F HX  81
GALESBURG      CLOUDY    73  65  76 SW5       30.02R
JACKSONVILLE   MOSUNNY   80  67  64 SW7       30.02S HX  82
LACON          CLOUDY    73  64  73 SW5       30.01S
LAWRENCEVILLE  CLOUDY    81  68  64 SW13      30.08F HX  84
LITCHFIELD     CLOUDY    76  64  65 S7        30.04S
$$


CITY           SKY/WX    TMP DP  RH WIND       PRES   REMARKS
LINCOLN        CLOUDY    78  66  66 S6        30.03S HX  80
MACOMB         PTSUNNY   76  65  69 SW5       30.03S
MATTOON        CLOUDY    79  65  62 S9        30.06S HX  81
MT CARMEL AP   CLOUDY    79  68  69 SW10      30.07F HX  81
OLNEY-NOBLE AP CLOUDY    77  70  78 S8        30.07F
PARIS          CLOUDY    82  69  63 S9        30.07F HX  85
PEORIA         MOSUNNY   81  65  58 S6        30.02S HX  83
PONTIAC        CLOUDY    74  68  82 S9        30.04S
RANTOUL        CLOUDY    80  67  63 S7        30.06S HX  82
ROBINSON       CLOUDY    80  68  67 S9        30.09S HX  82
SPRINGFIELD    CLOUDY    78  67  68 SW9       30.03R HX  80
TAYLORVILLE    CLOUDY    75  66  73 S8        30.04S
$$

...REGIONAL REPORTS...


CITY           SKY/WX    TMP DP  RH WIND       PRES   REMARKS
CHICAGO O`HARE LGT RAIN  67  64  90 SE8       30.04S
KANKAKEE       DRIZZLE   70  66  89 SE7       30.05F
MOLINE         CLOUDY    69  66  90 CALM      30.01S FOG
MOUNT STERLING PTSUNNY   76  66  71 W7        30.01S
MOUNT VERNON   CLOUDY    77  66  69 S8        30.08S
PITTSFIELD     MOSUNNY   80  66  61 SW5       30.02S HX  82
QUINCY         MOSUNNY   79  66  64 W8        30.01R HX  81
ROCKFORD       CLOUDY    68  64  87 SE9       30.03F
$$


CITY           SKY/WX    TMP DP  RH WIND       PRES   REMARKS
BURLINGTON     CLOUDY    75  67  76 CALM      30.01R
CEDAR RAPIDS   CLOUDY    71  67  87 N7        30.01R
DES MOINES     CLOUDY    69  62  78 NE7       30.04R
KIRKSVILLE     CLOUDY    73  66  78 CALM      30.03R
OTTUMWA        CLOUDY    72  69  90 N8        30.01R
ST LOUIS       CLOUDY    81  65  58 SW9       30.04R HX  83
$$


CITY           SKY/WX    TMP DP  RH WIND       PRES   REMARKS
TERRE HAUTE    CLOUDY    78  67  68 S5        30.08S HX  80
EVANSVILLE     PTSUNNY   85  70  60 S10       30.09F HX  89
INDIANAPOLIS   CLOUDY    78  66  66 SW7       30.09S HX  80
LAFAYETTE      CLOUDY    76  65  68 S3        30.07F
MADISON        CLOUDY    65  62  90 S3        30.03S
MILWAUKEE      CLOUDY    63  61  93 SE5       30.05S
$$





USA.gov is the U.S. government's official web portal to all federal, state and local government web resources and services.